Hourly Data Report for August 04, 2021

EUREKA CLIMATE
NUNAVUT
Current Station Operator: ECCC - MSC

79°59'21.000" N
85°56'02.000" W
10.00 m
2401199
71613
NEK

Download Data

Hourly Data (August 2021)
Hourly Data Report for August 4, 2021
TIME
LST
Temp Definition
°C
Dew Point Definition
°C
Rel Hum Definition
%
Precip. Amount Definition
mm

Wind Dir Definition
10's deg

Wind Spd Definition
km/h
Visibility Definition
km
Stn Press Definition
kPa
Hmdx Definition


Wind Chill Definition


Weather Definition


00:00 3.4 1.7 89 0.0 30 11   100.53     LegendNANA
01:00 3.3 1.4 87 0.0 29 13   100.53     LegendNANA
02:00 3.0 1.1 88 0.0 29 13   100.54     LegendNANA
03:00 2.9 1.3 89 0.0 29 15   100.56     LegendNANA
04:00 3.0 1.4 89 0.0 29 14   100.56     LegendNANA
05:00 3.0 1.2 88 0.0 29 15   100.59     LegendNANA
06:00 2.8 1.2 89 0.0 28 15   100.60     LegendNANA
07:00 3.1 1.3 88 0.0 29 16   100.58     LegendNANA
08:00 3.4 1.3 86 0.0 28 18   100.57     LegendNANA
09:00 3.1 1.2 87 0.0 29 18   100.57     LegendNANA
10:00 4.1 1.2 82 0.0 29 21   100.55     LegendNANA
11:00 4.6 1.4 80 0.0 29 20   100.56     LegendNANA
12:00 4.1 1.1 81 0.0 29 22   100.56     LegendNANA
13:00 5.5 1.6 76 0.0 29 21   100.55     LegendNANA
14:00 5.7 1.8 76 0.0 29 22   100.54     LegendNANA
15:00 6.3 1.8 73 0.0 30 21   100.53     LegendNANA
16:00 6.4 2.1 74 0.0 29 21   100.55     LegendNANA
17:00 5.3 1.6 77 0.0 30 20   100.56     LegendNANA
18:00 4.8 1.8 81 0.0 30 19   100.55     LegendNANA
19:00 6.2 2.1 75 0.0 29 22   100.57     LegendNANA
20:00 6.2 2.1 75 0.0 30 12   100.57     LegendNANA
21:00 6.2 2.0 75 0.0 30 15   100.57     LegendNANA
22:00 6.7 2.1 72 0.0 30 16   100.58     LegendNANA
23:00 6.9 2.6 74 0.0 30 19   100.59     LegendNANA

Notes on Data Quality.

Legend

  • E = Estimated
  • M = Missing
  • NA = Not Available*
  • [empty] = Indicates an unobserved value
Date modified: